Waarnemingen

Advertentie
Mijn weer
Troyes, Frankrijk (7168): temperatuur & dauwpunt: 13.04.2019 06:00:00 - 19.04.2019 06:00:00 (CEST)Troyes, Frankrijk (7168): temperatuur 5cm: 13.04.2019 06:00:00 - 19.04.2019 06:00:00 (CEST)Troyes, Frankrijk (7168): temperatuur -20cm & temperatuur -100cm: 13.04.2019 06:00:00 - 19.04.2019 06:00:00 (CEST)Troyes, Frankrijk (7168): windsnelheid & windstoten: 13.04.2019 06:00:00 - 19.04.2019 06:00:00 (CEST)Troyes, Frankrijk (7168): windrichting: 13.04.2019 06:00:00 - 19.04.2019 06:00:00 (CEST)Troyes, Frankrijk (7168): luchtdruk: 13.04.2019 06:00:00 - 19.04.2019 06:00:00 (CEST)Troyes, Frankrijk (7168): zicht: 13.04.2019 06:00:00 - 19.04.2019 06:00:00 (CEST)Troyes, Frankrijk (7168): Zonneschijnduur: 13.04.2019 06:00:00 - 19.04.2019 06:00:00 (CEST)Troyes, Frankrijk (7168): neerslag: 13.04.2019 06:00:00 - 19.04.2019 06:00:00 (CEST)
Datum & Tijd tt [°C] td [°C] tt 5cm [°C] tt -20cm [°C] tt -100cm [°C] ff [km/u] ff [kn] fx [km/u] fx [kn] dd ppp [hPa] vv [km] sd [min] rr [mm]
19.04.2019 06:00:00 5,3 3,6 2,6 12,6 10,3 4 2 8 4 ZZO 1023,3 16 0 0,0
19.04.2019 05:00:00 6,1 4,4 3,2 12,8 10,3 4 2 9 5 ZZO 1023,0 18 0 0,0
19.04.2019 04:00:00 6,9 4,9 3,7 12,9 10,3 6 4 9 5 ZO 1022,4 20 0 0,0
19.04.2019 03:00:00 7,1 4,6 4,0 13,0 10,3 3 1 6 3 ZZO 1022,2 20 0 0,0
19.04.2019 02:00:00 10,7 5,9 4,7 13,2 10,3 5 3 13 7 ONO 1021,9 20 0 0,0
19.04.2019 01:00:00 10,3 5,7 5,1 13,3 10,3 3 2 10 5 OZO 1021,8 20 0 0,0
19.04.2019 00:00:00 11,2 5,3 7,1 13,3 10,2 5 3 13 7 ZZW 1021,5 20 0 0,0
18.04.2019 23:00:00 15,1 5,9 12,7 13,4 10,3 9 5 16 8 O 1020,9 20 0 0,0
18.04.2019 22:00:00 16,4 6,8 13,6 13,4 10,3 8 5 18 10 ONO 1020,2 20 0 0,0
18.04.2019 21:00:00 18,1 7,8 16,1 13,3 10,2 11 6 21 12 ONO 1019,6 20 14 0,0
18.04.2019 20:00:00 20,1 9,0 18,7 13,1 10,3 14 8 28 15 ONO 1018,9 20 47 0,0
18.04.2019 19:00:00 21,8 9,7 21,0 12,9 10,2 16 8 27 15 ONO 1018,5 20 35 0,0
18.04.2019 18:00:00 22,5 8,9 22,4 12,6 10,2 17 9 29 16 ONO 1018,1 20 23 0,0
18.04.2019 17:00:00 23,4 9,8 23,3 12,2 10,2 13 7 29 16 O 1018,1 20 36 0,0
18.04.2019 16:00:00 23,0 9,4 25,1 11,9 10,2 17 9 37 20 O 1018,2 20 49 0,0
18.04.2019 15:00:00 22,8 9,6 24,5 11,6 10,2 19 10 32 18 ONO 1018,3 20 50 0,0
18.04.2019 14:00:00 21,9 10,7 25,5 11,4 10,2 19 11 32 18 ONO 1018,5 20 60 0,0
18.04.2019 13:00:00 20,4 12,1 23,6 11,3 10,2 18 10 30 16 ONO 1019,0 19 60 0,0
18.04.2019 12:00:00 18,9 11,7 22,1 11,2 10,2 13 7 23 12 O 1019,6 20 60 0,0
18.04.2019 11:00:00 17,6 11,2 20,0 11,2 10,2 12 6 20 11 O 1019,7 20 60 0,0
18.04.2019 10:00:00 15,4 10,0 16,5 11,3 10,1 13 7 18 10 OZO 1020,0 20 60 0,0
18.04.2019 09:00:00 13,3 9,5 12,2 11,4 10,2 9 5 16 9 O 1020,0 20 60 0,0
18.04.2019 08:00:00 10,7 8,6 7,4 11,5 10,2 7 4 10 5 O 1019,8 20 48 0,0
18.04.2019 07:00:00 8,9 7,3 6,7 11,6 10,2 6 3 10 5 O 1019,5 20 0 0,0
18.04.2019 06:00:00 9,3 7,7 5,8 11,8 10,2 5 3 8 4 OZO 1019,2 20 0 0,0
18.04.2019 05:00:00 8,6 7,7 5,1 11,9 10,2 5 3 7 4 OZO 1019,2 20 0 0,0
18.04.2019 04:00:00 7,6 6,4 4,3 12,1 10,2 3 2 4 2 OZO 1019,4 20 0 0,0
18.04.2019 03:00:00 8,0 6,8 3,8 12,2 10,2 3 2 4 2 O 1019,5 20 0 0,0
18.04.2019 02:00:00 8,1 6,6 4,0 12,3 10,2 0 0 5 3 N 1019,6 20 0 0,0
18.04.2019 01:00:00 9,5 6,8 5,2 12,4 10,2 0 0 7 4 N 1019,4 20 0 0,0
18.04.2019 00:00:00 11,2 7,1 7,2 12,5 10,2 3 1 16 8 OZO 1019,3 20 0 0,0
17.04.2019 23:00:00 12,6 8,3 5,7 12,5 10,1 9 5 13 7 ONO 1019,0 20 0 0,0
17.04.2019 22:00:00 12,8 7,5 6,6 12,6 10,2 5 3 10 6 NO 1019,0 20 0 0,0
17.04.2019 21:00:00 15,2 7,2 10,6 12,5 10,2 8 5 10 6 ONO 1018,6 20 13 0,0
17.04.2019 20:00:00 16,7 8,6 15,2 12,3 10,2 8 4 25 13 ONO 1018,1 20 60 0,0
17.04.2019 19:00:00 18,2 9,3 17,8 12,1 10,2 15 8 30 16 ONO 1017,8 20 53 0,0
17.04.2019 18:00:00 18,6 9,6 18,1 11,7 10,2 15 8 26 14 ONO 1018,2 20 48 0,0
17.04.2019 17:00:00 18,4 9,5 18,4 11,4 10,2 15 8 25 14 ONO 1018,4 20 42 0,0
17.04.2019 16:00:00 19,1 9,0 18,3 11,1 10,2 6 3 18 10 O 1019,0 20 42 0,0
17.04.2019 15:00:00 17,0 8,4 18,8 10,8 10,2 7 4 19 10 NNO 1019,7 20 31 0,0
17.04.2019 14:00:00 17,1 8,5 19,0 10,5 10,2 4 2 14 8 O 1019,9 20 26 0,0
17.04.2019 13:00:00 15,3 8,3 18,6 10,3 10,1 5 3 14 8 O 1020,5 20 40 0,0
17.04.2019 12:00:00 15,0 8,5 16,7 10,2 10,2 10 5 14 8 O 1020,8 20 43 0,0
17.04.2019 11:00:00 13,8 9,6 15,9 10,1 10,1 9 5 16 8 Z 1021,0 18 50 0,0
17.04.2019 10:00:00 11,8 8,5 14,2 10,1 10,1 5 3 13 7 Z 1021,2 19 31 0,0
17.04.2019 09:00:00 11,5 8,7 10,3 10,2 10,2 4 2 7 4 ZZW 1021,2 20 38 0,0
17.04.2019 08:00:00 9,9 8,7 9,1 10,2 10,2 5 3 12 7 WZW 1021,0 15 0 0,0
17.04.2019 07:00:00 9,5 8,7 9,1 10,2 10,2 9 5 13 7 WZW 1020,7 13 0 0,0
17.04.2019 06:00:00 9,5 8,9 9,1 10,3 10,2 6 3 8 4 Z 1020,4 4,3 0 0,0
17.04.2019 05:00:00 9,6 9,0 8,6 10,3 10,2 2 1 7 4 O 1020,2 4,0 0 0,0
17.04.2019 04:00:00 9,4 8,8 8,1 10,3 10,2 5 3 14 7 ZZO 1020,2 4,5 0 0,0
17.04.2019 03:00:00 9,6 9,0 8,6 10,3 10,2 4 2 11 6 Z 1020,0 4,8 0 0,0
17.04.2019 02:00:00 9,4 8,6 8,7 10,3 10,2 5 3 11 6 ZZW 1020,2 3,8 0 0,0
17.04.2019 01:00:00 10,0 9,2 9,3 10,3 10,2 5 3 8 4 ZZW 1020,1 6 0 0,0
17.04.2019 00:00:00 10,5 9,6 9,8 10,3 10,2 6 4 15 8 ZW 1020,0 7 0 0,0
16.04.2019 23:00:00 10,4 9,5 9,8 10,3 10,2 6 3 14 7 ZZW 1019,8 8 0 0,0
16.04.2019 22:00:00 10,7 9,8 10,2 10,2 10,2 8 5 13 7 ZW 1019,7 7 0 0,0
16.04.2019 21:00:00 11,0 9,7 10,3 10,2 10,2 11 6 16 9 WZW 1018,9 18 0 0,0
16.04.2019 20:00:00 11,2 10,1 10,8 10,1 10,2 10 6 18 10 WZW 1018,2 18 3 0,0
16.04.2019 19:00:00 11,2 10,3 11,1 10,0 10,2 12 7 22 12 W 1017,8 18 0 0,2
16.04.2019 18:00:00 11,0 10,2 11,2 9,9 10,2 19 11 26 14 WNW 1017,4 2,2 0 0,6
16.04.2019 17:00:00 11,7 10,6 11,8 9,8 10,2 13 7 20 11 W 1016,8 8 0 0,0
16.04.2019 16:00:00 11,8 10,7 11,8 9,7 10,2 10 6 20 11 ZZW 1016,6 4,8 0 0,2
16.04.2019 15:00:00 11,4 10,3 11,0 9,7 10,2 11 6 20 11 Z 1016,5 6 0 0,0
16.04.2019 14:00:00 11,0 9,9 10,5 9,6 10,2 11 6 15 8 ZZW 1016,4 20 0 0,2
16.04.2019 13:00:00 10,3 9,4 10,1 9,6 10,2 10 6 21 12 Z 1016,5 4,7 0 0,4
16.04.2019 12:00:00 10,2 9,1 9,5 9,6 10,2 12 7 22 12 Z 1016,5 13 0 0,2
16.04.2019 11:00:00 9,8 8,6 9,4 9,6 10,2 14 8 24 13 Z 1016,1 15 0 0,2
16.04.2019 10:00:00 9,7 8,6 9,2 9,7 10,2 16 8 27 14 Z 1015,8 17 0 0,4
16.04.2019 09:00:00 9,5 8,3 8,6 9,7 10,2 16 9 32 17 Z 1015,5 8 0 0,8
16.04.2019 08:00:00 9,1 7,7 8,3 9,8 10,2 24 13 35 19 Z 1015,0 9 0 0,4
16.04.2019 07:00:00 9,8 6,0 6,1 9,9 10,2 16 9 24 13 Z 1014,5 20 0 0,0
16.04.2019 06:00:00 6,6 4,4 3,5 10,0 10,2 12 7 15 8 Z 1013,9 15 0 0,0
16.04.2019 05:00:00 5,6 3,4 2,9 10,1 10,2 11 6 13 7 Z 1013,9 13 0 0,0
16.04.2019 04:00:00 5,0 2,4 2,8 10,3 10,2 5 3 11 6 ZZO 1013,7 14 0 0,0
16.04.2019 03:00:00 8,2 3,4 2,6 10,4 10,2 10 5 16 9 ZO 1013,4 16 0 0,0
16.04.2019 02:00:00 5,6 2,4 2,6 10,5 10,2 6 3 8 5 O 1014,1 19 0 0,0
16.04.2019 01:00:00 7,1 1,8 3,1 10,6 10,3 3 1 11 6 O 1014,3 20 0 0,0
16.04.2019 00:00:00 8,7 2,0 3,3 10,6 10,2 6 3 8 4 O 1014,2 20 0 0,0
15.04.2019 23:00:00 10,7 2,0 6,8 10,6 10,2 4 2 19 11 ZO 1014,1 20 0 0,0
15.04.2019 22:00:00 12,9 1,5 11,5 10,6 10,2 15 8 22 12 O 1014,1 20 0 0,0
15.04.2019 21:00:00 13,9 1,8 12,2 10,4 10,2 12 7 25 14 O 1014,0 20 10 0,0
15.04.2019 20:00:00 15,9 2,3 15,0 10,2 10,2 17 9 29 16 O 1013,4 20 60 0,0
15.04.2019 19:00:00 16,9 2,5 16,7 10,0 10,3 18 10 34 18 O 1013,7 20 53 0,0
15.04.2019 18:00:00 17,5 3,0 19,1 9,6 14,0 22 12 38 21 OZO 1014,2 20 60 0,0
15.04.2019 17:00:00 17,1 3,4 19,6 9,2 - 21 11 38 21 O 1015,0 20 60 0,0
15.04.2019 16:00:00 16,4 2,4 19,0 8,8 55,0 22 12 35 19 OZO 1016,1 20 60 0,0
15.04.2019 15:00:00 15,7 3,5 18,9 8,5 16,3 18 10 41 22 OZO 1017,1 19 60 0,0
15.04.2019 14:00:00 14,1 3,2 18,5 8,3 10,2 17 9 35 19 O 1018,4 17 60 0,0
15.04.2019 13:00:00 12,2 2,6 16,6 8,2 10,3 16 9 28 15 O 1019,5 17 60 0,0
15.04.2019 12:00:00 10,3 2,6 14,6 8,2 10,3 14 8 23 12 O 1020,8 16 60 0,0
15.04.2019 11:00:00 8,7 2,5 12,5 8,2 10,3 11 6 20 11 ONO 1021,9 14 60 0,0
15.04.2019 10:00:00 6,7 1,4 7,5 8,4 10,3 6 3 18 10 NO 1022,7 12 60 0,0
15.04.2019 09:00:00 4,6 0,9 2,9 8,5 10,2 11 6 18 10 O 1022,7 11 60 0,0
15.04.2019 08:00:00 1,6 0,0 -4,4 8,7 10,3 2 1 6 3 ONO 1023,2 7 42 0,0
15.04.2019 07:00:00 -0,4 -2,0 -4,7 8,8 10,3 3 2 8 4 NNO 1023,4 6 0 0,0
15.04.2019 06:00:00 0,1 -1,7 -5,2 9,0 10,3 5 3 9 5 N 1023,4 7 0 0,0
15.04.2019 05:00:00 -1,7 -3,4 -5,2 9,1 10,3 0 0 8 5 N 1023,8 7 0 0,0
15.04.2019 04:00:00 -0,5 -2,1 -4,8 9,3 10,3 5 3 7 4 NNW 1023,9 10 0 0,0
15.04.2019 03:00:00 0,3 -1,9 -4,1 9,5 10,3 4 2 7 4 NW 1024,2 10 0 0,0
15.04.2019 02:00:00 0,0 -2,4 -3,7 9,6 10,3 5 3 7 4 NW 1024,7 10 0 0,0
15.04.2019 01:00:00 1,3 -1,8 -3,3 9,7 10,3 6 3 7 4 WNW 1024,8 12 0 0,0
15.04.2019 00:00:00 2,4 -1,6 -1,6 9,8 10,3 4 2 10 5 NNW 1024,2 13 0 0,0
14.04.2019 23:00:00 1,4 -1,7 -0,8 9,9 10,3 9 5 12 6 WNW 1024,5 11 0 0,0
14.04.2019 22:00:00 2,6 -0,9 -0,1 9,8 10,3 6 3 10 6 NNW 1023,9 13 0 0,0
14.04.2019 21:00:00 3,0 -1,7 0,3 9,8 10,3 8 4 16 8 NNW 1023,7 16 9 0,0
14.04.2019 20:00:00 8,0 -2,1 7,1 9,7 10,3 10 5 23 12 NNO 1022,8 20 54 0,0
14.04.2019 19:00:00 8,5 -3,1 8,3 9,5 10,3 12 7 26 14 NNO 1022,9 19 17 0,0
14.04.2019 18:00:00 9,8 -3,2 8,9 9,2 10,3 11 6 27 14 N 1022,7 20 34 0,0
14.04.2019 17:00:00 9,8 -2,8 9,3 8,9 10,3 7 4 27 15 NNO 1021,8 19 30 0,0
14.04.2019 16:00:00 8,6 -4,9 10,1 8,6 10,3 18 10 28 15 NO 1022,1 19 35 0,0
14.04.2019 15:00:00 8,5 -3,4 9,8 8,4 10,3 11 6 31 17 NO 1022,4 16 40 0,0
14.04.2019 14:00:00 7,7 -2,6 9,0 8,3 10,3 12 6 26 14 NNO 1022,4 17 36 0,0
14.04.2019 13:00:00 6,8 -2,4 9,8 8,2 10,3 13 7 26 14 N 1022,7 17 44 0,0
14.04.2019 12:00:00 6,4 -1,8 9,5 8,2 10,3 9 5 21 11 N 1023,0 18 52 0,0
14.04.2019 11:00:00 4,9 -0,7 9,4 8,3 10,3 9 5 16 9 N 1023,1 12 60 0,0
14.04.2019 10:00:00 3,0 -1,0 4,4 8,5 10,3 6 4 14 8 NNW 1022,9 14 60 0,2
14.04.2019 09:00:00 0,3 -1,8 -0,2 8,6 10,3 11 6 13 7 NW 1022,7 11 60 0,0
14.04.2019 08:00:00 -1,6 -3,2 -4,4 8,8 10,3 8 4 15 8 NW 1022,8 9 40 0,0
14.04.2019 07:00:00 -3,3 -4,7 -5,3 8,9 10,3 10 5 12 6 WNW 1022,5 8 0 0,0
14.04.2019 06:00:00 -2,5 -3,9 -6,1 9,1 10,3 8 4 13 7 WNW 1022,5 9 0 0,0
14.04.2019 05:00:00 -2,5 -3,9 -4,9 9,3 10,3 10 6 14 7 WNW 1022,6 9 0 0,0
14.04.2019 04:00:00 -2,0 -3,6 -4,4 9,5 10,3 9 5 16 8 WNW 1022,4 10 0 0,0
14.04.2019 03:00:00 -2,3 -3,9 -3,9 9,6 10,3 14 8 17 9 WNW 1022,7 10 0 0,0
14.04.2019 02:00:00 -2,1 -4,0 -3,8 9,8 10,3 13 7 16 8 WNW 1022,7 12 0 0,0
14.04.2019 01:00:00 -1,5 -3,5 -3,7 9,9 10,3 9 5 14 8 NW 1023,0 10 0 0,0
14.04.2019 00:00:00 -1,1 -3,9 -3,3 10,1 10,3 9 5 13 7 WNW 1023,1 16 0 0,0
13.04.2019 23:00:00 -1,1 -3,9 -3,4 10,2 10,3 9 5 12 7 WNW 1023,1 17 0 0,0
13.04.2019 22:00:00 0,0 -3,9 -2,7 10,2 10,3 6 3 9 5 NNW 1023,0 20 0 0,0
13.04.2019 21:00:00 5,2 -4,1 2,9 10,2 10,3 5 3 22 12 NNO 1022,8 20 5 0,0
13.04.2019 20:00:00 6,9 -4,8 5,9 10,2 10,3 14 8 26 14 N 1022,5 20 40 0,0
13.04.2019 19:00:00 7,9 -5,6 7,0 10,0 10,3 13 7 38 20 N 1022,1 20 30 0,0
13.04.2019 18:00:00 8,1 -5,7 8,3 9,9 10,3 18 10 31 17 N 1022,1 20 28 0,0
13.04.2019 17:00:00 8,5 -4,4 9,4 9,7 10,3 15 8 38 21 NNO 1022,2 20 31 0,0
13.04.2019 16:00:00 9,4 -3,9 9,2 9,5 10,3 15 8 37 20 N 1022,3 20 33 0,0
13.04.2019 15:00:00 8,2 -5,0 9,0 9,4 10,3 21 12 38 21 N 1022,7 20 22 0,0
13.04.2019 14:00:00 7,7 -5,1 9,9 9,3 10,3 21 11 33 18 N 1022,8 19 29 0,0
13.04.2019 13:00:00 7,0 -3,8 8,8 9,2 10,3 17 9 34 18 N 1023,4 19 22 0,0
13.04.2019 12:00:00 7,4 -4,7 10,1 9,2 10,3 18 10 29 16 NNO 1023,2 19 57 0,0
13.04.2019 11:00:00 5,9 -1,1 7,9 9,4 10,3 13 7 26 14 N 1023,4 15 60 0,0
13.04.2019 10:00:00 4,0 -0,8 5,4 9,5 10,2 13 7 23 12 N 1023,7 12 60 0,0
13.04.2019 09:00:00 2,3 -1,1 1,2 9,6 10,3 11 6 19 11 N 1023,6 9 60 0,0
13.04.2019 08:00:00 -0,6 -2,0 -2,8 9,8 10,3 10 5 17 9 WNW 1023,7 6 38 0,0
13.04.2019 07:00:00 -1,8 -3,1 -3,0 10,0 10,3 13 7 18 10 WNW 1023,4 6 0 0,0
13.04.2019 06:00:00 -0,7 -2,4 -1,7 10,1 10,3 14 8 19 10 WNW 1023,2 9 0 0,0

tt = temperatuur
td = dauwpunt
tt 5cm = temperatuur 5cm
tt -20cm = temperatuur -20cm
tt -100cm = temperatuur -100cm
ff = windsnelheid
fx = windstoten
dd = windrichting
ppp = luchtdruk
vv = zicht
sd = Zonneschijnduur
rr = neerslag

Weerstations in de omgeving